Time,TemperatureF,DewpointF,PressureIn,WindDirection,WindDirectionDegrees,WindSpeedMPH,WindSpeedGustMPH,Humidity,HourlyPrecipIn,Conditions,Clouds,dailyrainin,SoftwareType,DateUTC
2013-02-25 00:07:00,43.7,23.8,30.21,North,0,0.0,-999.0,45,-99.99,,,0.00,Acu-Link.com,2013-02-25 08:07:00,
2013-02-25 00:22:00,43.0,23.1,30.23,North,0,2.7,-999.0,45,-99.99,,,0.00,Acu-Link.com,2013-02-25 08:22:00,
2013-02-25 00:38:00,45.0,23.9,30.23,North,0,1.1,-999.0,43,-99.99,,,0.00,Acu-Link.com,2013-02-25 08:38:00,
2013-02-25 00:53:00,45.9,23.5,30.23,North,0,2.2,-999.0,41,-99.99,,,0.00,Acu-Link.com,2013-02-25 08:53:00,
2013-02-25 01:17:00,44.6,22.4,30.23,North,0,1.1,-999.0,41,-99.99,,,0.00,Acu-Link.com,2013-02-25 09:17:00,
2013-02-25 01:32:00,43.7,22.1,30.24,North,0,0.0,-999.0,42,-99.99,,,0.00,Acu-Link.com,2013-02-25 09:32:00,
2013-02-25 01:47:00,40.5,20.9,30.24,North,0,2.2,-999.0,45,-99.99,,,0.00,Acu-Link.com,2013-02-25 09:47:00,
2013-02-25 02:02:00,39.4,20.9,30.23,North,0,1.7,-999.0,47,-99.99,,,0.00,Acu-Link.com,2013-02-25 10:02:00,
2013-02-25 02:18:00,37.8,20.8,30.22,North,0,2.2,-999.0,50,-99.99,,,0.00,Acu-Link.com,2013-02-25 10:18:00,
2013-02-25 02:33:00,37.6,21.1,30.22,North,0,2.7,-999.0,51,-99.99,,,0.00,Acu-Link.com,2013-02-25 10:33:00,
2013-02-25 02:48:00,38.1,21.6,30.22,North,0,1.1,-999.0,51,-99.99,,,0.00,Acu-Link.com,2013-02-25 10:48:00,
2013-02-25 03:03:00,37.4,20.9,30.22,North,0,0.0,-999.0,51,-99.99,,,0.00,Acu-Link.com,2013-02-25 11:03:00,
2013-02-25 03:19:00,36.7,20.3,30.22,North,0,1.7,-999.0,51,-99.99,,,0.00,Acu-Link.com,2013-02-25 11:19:00,
2013-02-25 03:34:00,36.3,19.9,30.21,North,0,1.7,-999.0,51,-99.99,,,0.00,Acu-Link.com,2013-02-25 11:34:00,
2013-02-25 03:49:00,36.0,20.5,30.21,North,0,1.1,-999.0,53,-99.99,,,0.00,Acu-Link.com,2013-02-25 11:49:00,
2013-02-25 04:04:00,37.4,20.9,30.21,North,0,2.2,-999.0,51,-99.99,,,0.00,Acu-Link.com,2013-02-25 12:04:00,
2013-02-25 04:19:00,38.1,20.7,30.21,North,0,0.0,-999.0,49,-99.99,,,0.00,Acu-Link.com,2013-02-25 12:19:00,
2013-02-25 04:35:00,38.1,20.7,30.22,North,0,0.0,-999.0,49,-99.99,,,0.00,Acu-Link.com,2013-02-25 12:35:00,
2013-02-25 05:05:00,37.9,20.5,30.22,North,0,1.7,-999.0,49,-99.99,,,0.00,Acu-Link.com,2013-02-25 13:05:00,
2013-02-25 05:20:00,37.8,20.4,30.22,North,0,0.0,-999.0,49,-99.99,,,0.00,Acu-Link.com,2013-02-25 13:20:00,
2013-02-25 05:36:00,36.1,19.7,30.22,North,0,1.7,-999.0,51,-99.99,,,0.00,Acu-Link.com,2013-02-25 13:36:00,
2013-02-25 05:51:00,35.6,19.7,30.22,North,0,0.0,-999.0,52,-99.99,,,0.00,Acu-Link.com,2013-02-25 13:51:00,
2013-02-25 06:06:00,34.9,20.0,30.22,North,0,0.0,-999.0,54,-99.99,,,0.00,Acu-Link.com,2013-02-25 14:06:00,
2013-02-25 06:22:00,34.7,19.8,30.22,North,0,0.0,-999.0,54,-99.99,,,0.00,Acu-Link.com,2013-02-25 14:22:00,
2013-02-25 06:37:00,34.3,19.8,30.21,North,0,0.0,-999.0,55,-99.99,,,0.00,Acu-Link.com,2013-02-25 14:37:00,
2013-02-25 06:53:00,34.7,20.2,30.22,North,0,2.2,-999.0,55,-99.99,,,0.00,Acu-Link.com,2013-02-25 14:53:00,
2013-02-25 07:08:00,35.2,21.1,30.22,North,0,1.7,-999.0,56,-99.99,,,0.00,Acu-Link.com,2013-02-25 15:08:00,
2013-02-25 07:24:00,36.9,22.7,30.22,North,0,1.7,-999.0,56,-99.99,,,0.00,Acu-Link.com,2013-02-25 15:24:00,
2013-02-25 07:39:00,39.4,24.6,30.22,North,0,1.7,-999.0,55,-99.99,,,0.00,Acu-Link.com,2013-02-25 15:39:00,
2013-02-25 07:54:00,45.9,29.3,30.23,North,0,0.0,-999.0,52,-99.99,,,0.00,Acu-Link.com,2013-02-25 15:54:00,
2013-02-25 08:09:00,53.2,33.5,30.24,North,0,1.7,-999.0,47,-99.99,,,0.00,Acu-Link.com,2013-02-25 16:09:00,
2013-02-25 08:24:00,57.0,34.1,30.23,North,0,0.0,-999.0,42,-99.99,,,0.00,Acu-Link.com,2013-02-25 16:24:00,
2013-02-25 08:40:00,55.2,30.7,30.23,North,0,2.2,-999.0,39,-99.99,,,0.00,Acu-Link.com,2013-02-25 16:40:00,
2013-02-25 08:55:00,57.6,32.2,30.22,North,0,3.2,-999.0,38,-99.99,,,0.00,Acu-Link.com,2013-02-25 16:55:00,
2013-02-25 09:10:00,61.0,33.9,30.21,North,0,2.7,-999.0,36,-99.99,,,0.00,Acu-Link.com,2013-02-25 17:10:00,
2013-02-25 09:25:00,62.4,34.4,30.21,North,0,3.2,-999.0,35,-99.99,,,0.00,Acu-Link.com,2013-02-25 17:25:00,
2013-02-25 09:41:00,64.8,35.0,30.20,ESE,112,2.2,-999.0,33,-99.99,,,0.00,Acu-Link.com,2013-02-25 17:41:00,
2013-02-25 09:56:00,67.1,35.5,30.19,NNE,22,1.7,-999.0,31,-99.99,,,0.00,Acu-Link.com,2013-02-25 17:56:00,
2013-02-25 10:11:00,67.1,33.8,30.19,SE,135,2.7,-999.0,29,-99.99,,,0.00,Acu-Link.com,2013-02-25 18:11:00,
2013-02-25 10:26:00,66.0,32.8,30.20,SSE,157,5.8,-999.0,29,-99.99,,,0.00,Acu-Link.com,2013-02-25 18:26:00,
2013-02-25 10:41:00,66.7,32.6,30.20,ESE,112,6.3,-999.0,28,-99.99,,,0.00,Acu-Link.com,2013-02-25 18:41:00,
2013-02-25 10:57:00,65.7,31.7,30.20,SSE,157,7.3,-999.0,28,-99.99,,,0.00,Acu-Link.com,2013-02-25 18:57:00,
2013-02-25 11:12:00,65.3,31.4,30.19,WSW,247,4.7,-999.0,28,-99.99,,,0.00,Acu-Link.com,2013-02-25 19:12:00,
2013-02-25 11:27:00,66.7,32.6,30.19,SSE,157,6.3,-999.0,28,-99.99,,,0.00,Acu-Link.com,2013-02-25 19:27:00,
2013-02-25 11:42:00,66.6,32.5,30.18,SE,135,2.2,-999.0,28,-99.99,,,0.00,Acu-Link.com,2013-02-25 19:42:00,
2013-02-25 11:57:00,65.8,31.8,30.16,South,180,6.8,-999.0,28,-99.99,,,0.00,Acu-Link.com,2013-02-25 19:57:00,
2013-02-25 12:13:00,67.3,33.1,30.17,SSW,202,5.8,-999.0,28,-99.99,,,0.00,Acu-Link.com,2013-02-25 20:13:00,
2013-02-25 12:28:00,67.5,33.2,30.16,South,180,6.3,-999.0,28,-99.99,,,0.00,Acu-Link.com,2013-02-25 20:28:00,
2013-02-25 12:43:00,66.7,32.6,30.15,South,180,6.3,-999.0,28,-99.99,,,0.00,Acu-Link.com,2013-02-25 20:43:00,
2013-02-25 12:58:00,67.1,32.9,30.15,SSE,157,6.3,-999.0,28,-99.99,,,0.00,Acu-Link.com,2013-02-25 20:58:00,
2013-02-25 13:14:00,66.9,32.7,30.14,SSE,157,5.8,-999.0,28,-99.99,,,0.00,Acu-Link.com,2013-02-25 21:14:00,
2013-02-25 13:29:00,67.3,33.1,30.13,South,180,6.3,-999.0,28,-99.99,,,0.00,Acu-Link.com,2013-02-25 21:29:00,
2013-02-25 13:44:00,66.7,32.6,30.13,South,180,8.9,-999.0,28,-99.99,,,0.00,Acu-Link.com,2013-02-25 21:44:00,
2013-02-25 13:59:00,66.7,33.4,30.13,SW,225,7.3,-999.0,29,-99.99,,,0.00,Acu-Link.com,2013-02-25 21:59:00,
2013-02-25 14:15:00,65.1,32.9,30.12,SSE,157,6.8,-999.0,30,-99.99,,,0.00,Acu-Link.com,2013-02-25 22:15:00,
2013-02-25 14:30:00,65.3,33.9,30.12,SSE,157,7.8,-999.0,31,-99.99,,,0.00,Acu-Link.com,2013-02-25 22:30:00,
2013-02-25 14:45:00,64.8,33.5,30.12,WSW,247,8.9,-999.0,31,-99.99,,,0.00,Acu-Link.com,2013-02-25 22:45:00,
2013-02-25 15:01:00,64.0,33.6,30.12,South,180,4.7,-999.0,32,-99.99,,,0.00,Acu-Link.com,2013-02-25 23:01:00,
2013-02-25 15:16:00,64.0,33.6,30.11,SSW,202,5.8,-999.0,32,-99.99,,,0.00,Acu-Link.com,2013-02-25 23:16:00,
2013-02-25 15:31:00,63.9,34.2,30.11,SSE,157,5.3,-999.0,33,-99.99,,,0.00,Acu-Link.com,2013-02-25 23:31:00,
2013-02-25 15:46:00,62.2,34.2,30.10,South,180,5.3,-999.0,35,-99.99,,,0.00,Acu-Link.com,2013-02-25 23:46:00,
2013-02-25 16:01:00,61.5,34.3,30.10,SW,225,7.3,-999.0,36,-99.99,,,0.00,Acu-Link.com,2013-02-26 00:01:00,
2013-02-25 16:17:00,61.2,34.7,30.09,South,180,3.2,-999.0,37,-99.99,,,0.00,Acu-Link.com,2013-02-26 00:17:00,
2013-02-25 16:32:00,60.3,34.6,30.08,South,180,3.7,-999.0,38,-99.99,,,0.00,Acu-Link.com,2013-02-26 00:32:00,
2013-02-25 17:06:00,59.7,34.7,30.08,South,180,3.2,-999.0,39,-99.99,,,0.00,Acu-Link.com,2013-02-26 01:06:00,
2013-02-25 17:21:00,57.0,35.3,30.07,SSW,202,3.7,-999.0,44,-99.99,,,0.00,Acu-Link.com,2013-02-26 01:21:00,
2013-02-25 17:36:00,56.5,36.0,30.07,SW,225,2.2,-999.0,46,-99.99,,,0.00,Acu-Link.com,2013-02-26 01:36:00,
2013-02-25 17:51:00,54.9,35.1,30.08,SW,225,1.1,-999.0,47,-99.99,,,0.00,Acu-Link.com,2013-02-26 01:51:00,
2013-02-25 18:06:00,53.8,35.1,30.06,SW,225,0.0,-999.0,49,-99.99,,,0.00,Acu-Link.com,2013-02-26 02:06:00,
2013-02-25 18:22:00,52.2,34.6,30.06,SW,225,0.0,-999.0,51,-99.99,,,0.00,Acu-Link.com,2013-02-26 02:22:00,
2013-02-25 18:37:00,51.1,34.6,30.04,SW,225,0.0,-999.0,53,-99.99,,,0.00,Acu-Link.com,2013-02-26 02:37:00,
2013-02-25 18:52:00,49.8,34.7,30.05,SW,225,1.1,-999.0,56,-99.99,,,0.00,Acu-Link.com,2013-02-26 02:52:00,
2013-02-25 19:07:00,48.7,35.0,30.06,SW,225,0.0,-999.0,59,-99.99,,,0.00,Acu-Link.com,2013-02-26 03:07:00,
2013-02-25 19:23:00,47.5,35.1,30.06,SW,225,0.0,-999.0,62,-99.99,,,0.00,Acu-Link.com,2013-02-26 03:23:00,
2013-02-25 19:38:00,46.6,35.1,30.07,SW,225,0.0,-999.0,64,-99.99,,,0.00,Acu-Link.com,2013-02-26 03:38:00,
2013-02-25 19:53:00,44.8,34.1,30.07,SW,225,0.0,-999.0,66,-99.99,,,0.00,Acu-Link.com,2013-02-26 03:53:00,
2013-02-25 20:08:00,44.2,33.9,30.08,SW,225,0.0,-999.0,67,-99.99,,,0.00,Acu-Link.com,2013-02-26 04:08:00,
2013-02-25 20:23:00,43.7,34.2,30.08,SW,225,0.0,-999.0,69,-99.99,,,0.00,Acu-Link.com,2013-02-26 04:23:00,
2013-02-25 20:39:00,42.3,33.6,30.07,SW,225,0.0,-999.0,71,-99.99,,,0.00,Acu-Link.com,2013-02-26 04:39:00,
2013-02-25 20:54:00,42.1,34.1,30.07,SW,225,0.0,-999.0,73,-99.99,,,0.00,Acu-Link.com,2013-02-26 04:54:00,
2013-02-25 21:09:00,41.5,33.8,30.06,SW,225,0.0,-999.0,74,-99.99,,,0.00,Acu-Link.com,2013-02-26 05:09:00,
2013-02-25 21:24:00,40.8,33.5,30.06,SW,225,0.0,-999.0,75,-99.99,,,0.00,Acu-Link.com,2013-02-26 05:24:00,
2013-02-25 21:39:00,41.0,34.0,30.07,SW,225,0.0,-999.0,76,-99.99,,,0.00,Acu-Link.com,2013-02-26 05:39:00,
2013-02-25 21:55:00,40.5,33.5,30.09,SW,225,0.0,-999.0,76,-99.99,,,0.00,Acu-Link.com,2013-02-26 05:55:00,
2013-02-25 22:10:00,40.3,33.3,30.10,SW,225,0.0,-999.0,76,-99.99,,,0.00,Acu-Link.com,2013-02-26 06:10:00,
2013-02-25 22:25:00,40.8,33.8,30.10,SW,225,0.0,-999.0,76,-99.99,,,0.00,Acu-Link.com,2013-02-26 06:25:00,
2013-02-25 22:40:00,40.8,33.5,30.10,SW,225,0.0,-999.0,75,-99.99,,,0.00,Acu-Link.com,2013-02-26 06:40:00,
2013-02-25 22:55:00,40.8,32.8,30.09,SW,225,0.0,-999.0,73,-99.99,,,0.00,Acu-Link.com,2013-02-26 06:55:00,
2013-02-25 23:11:00,40.5,32.5,30.10,SW,225,0.0,-999.0,73,-99.99,,,0.00,Acu-Link.com,2013-02-26 07:11:00,
2013-02-25 23:26:00,40.5,32.2,30.09,SW,225,0.0,-999.0,72,-99.99,,,0.00,Acu-Link.com,2013-02-26 07:26:00,
2013-02-25 23:41:00,39.9,31.6,30.09,SW,225,1.7,-999.0,72,-99.99,,,0.00,Acu-Link.com,2013-02-26 07:41:00,
2013-02-25 23:56:00,40.1,31.8,30.09,SW,225,1.7,-999.0,72,-99.99,,,0.00,Acu-Link.com,2013-02-26 07:56:00,